Starlink 33701

operational
NORAD ID: 63464 Int'l Des: 2025-070 Owner: SPXS Country: US Constellation: starlink
LEOCIRCULAR

About Starlink 33701

Description loading...

Live Position

Loading 3D Globe...

Upcoming Passes

Altitude History

Altitude vs Time

uPlot chart will show altitude changes over time

Two-Line Element Set

1 63464U 25070E 25305.86987082 .00024077 00000-0 88119-3 0 9990
2 63464 42.9976 262.0456 0000744 274.6534 85.4232 15.27596183 33426
Epoch: Nov 1, 2025 • Age: 40 hours

Current Status

Altitude 485.7 km
Velocity 7.63 km/s
Sub-Earth Point 40.29°N, 88.21°E
Launch Date Apr 6, 2025
Age 0.5 years
Type internet

Technical Details

Classification Payload
Mass 575.00 kg
Dry Mass 530.00 kg
Total Mass 575.00 kg
Length 0.30 m
Diameter 4.10 m
Span 29.00 m
Shape Box + pan
Manufacturer SPXS
Bus Type Starlink V2MO
Phase Status In Orbit
Owner/State SPXS/US

Large Constellations

Loading constellations...